www.pogodaiklimat.ru

Погода и климат >> Архив погоды >> Китай >> Хубэй >> Ухань


АРХИВ ПОГОДЫ в Ухани

Время (UTC), дата Ветер
(напр.,м/с)
 
Видим.   Явления Облачность Т
(С)
Тd
(С)
f
(%)
Тe
(С)
Тes
(С)
Комфортность P
(гПа)
Po
(гПа)
Тmin
(С)
Tmax
(С)
R
(мм)
R24
(мм)
S
(см)
00 13.09 ЮВ 1 8000 м ясно +30.5 +24.6 71 +43 +47 опасность
перегрева
1009.5 1006.7
03 13.09 ЮВ 1 11 км 8/8
[]
+34.9 +21.9 47 +43 +47 опасность
перегрева
1009.7 1007.1
06 13.09 СВ 3 12 км 8/8
[]
+37.2 +24.3 48 +49 +52 опасность
перегрева
1007.5 1004.7 +25.2
09 13.09 С 3 14 км 8/8
[]
+36.5 +23.0 46 +46 +47 опасность
перегрева
1007.2 1004.6
12 13.09 СВ 5 11 км 4/4
[]
+30.7 +22.0 60 +39 +39 очень
душно
1010.1 1007.3
15 13.09 С 4 18 км н/о +28.6 +21.1 64 +36 +36 очень
душно
1011.9 1009.3
18 13.09 С 2 28 км н/о +26.5 +19.4 65 +32 +32 очень
душно
1012.1 1009.3 +37.5
21 13.09 С 5 16 км н/о +25.4 +19.5 70 +31 +31 очень
душно
1012.1 1009.4
00 14.09 С 4 10 км 8/8 1000 м
[]
+25.4 +19.5 70 +31 +31 очень
душно
1013.8 1011.0
03 14.09 СВ 5 15 км 8/8
[]
+28.5 +19.4 58 +34 +36 очень
душно
1013.7 1011.1
06 14.09 С 2 17 км 8/8
[]
+31.1 +20.1 52 +38 +40 очень
душно
1011.9 1009.1 +24.8
09 14.09 С 3 25 км 6/6
[]
+31.2 +18.2 46 +36 +37 очень
душно
1010.6 1008.0
12 14.09 З 2 21 км 8/8
[]
+27.2 +17.9 57 +32 +32 очень
душно
1012.3 1009.5
15 14.09 СВ 2 13 км н/о +25.8 +19.2 67 +31 +31 очень
душно
1013.2 1010.5
18 14.09 З 1 18 км н/о +23.2 +18.7 76 +29 +29 душно 1012.4 1009.6 +32.1
21 14.09 С 1 13 км н/о +21.9 +19.1 84 +27 +27 душно 1011.8 1009.1
00 15.09 С 2 10 км 8/8
[]
+24.8 +20.5 77 +31 +31 очень
душно
1013.1 1010.3
03 15.09 С 3 11 км 10/10
[]
+27.2 +21.5 71 +35 +35 очень
душно
1013.4 1010.8
06 15.09 С 3 12 км 9/9
[]
+30.0 +21.7 61 +38 +39 очень
душно
1011.1 1008.3 +21.5
09 15.09 С 2 14 км 9/9
[]
+29.1 +21.6 64 +37 +37 очень
душно
1010.7 1008.1
12 15.09 С 4 12 км 10/10
[]
+25.3 +19.7 71 +31 +31 очень
душно
1012.5 1009.6
15 15.09 С 2 21 км н/о +23.9 +18.3 71 +28 +28 душно 1013.6 1010.9
18 15.09 С 2 9000 м н/о +22.1 +17.7 76 +27 +27 душно 1013.0 1010.2 +30.5
21 15.09 С 2 7000 м н/о +21.3 +17.7 80 +25 +25 комфорт 1013.7 1011.0
00 16.09 С 3 7000 м 10/10
[]
+21.3 +17.5 79 +25 +25 комфорт 1015.2 1012.3
03 16.09 С 3 10 км 10/10
[]
+23.2 +18.1 73 +29 +29 душно 1015.2 1012.5
06 16.09 С 2 11 км 10/10
[]
+25.1 +18.3 66 +30 +30 душно 1013.3 1010.4 +21.1
09 16.09 С 3 13 км 10/10
[]
+25.3 +18.7 67 +30 +30 душно 1012.5 1009.8
12 16.09 СВ 3 12 км 9/9
[]
+24.1 +18.1 69 +28 +28 душно 1013.1 1010.2
15 16.09 С 3 23 км н/о +23.0 +17.5 71 +28 +28 душно 1014.5 1011.8
18 16.09 С 2 21 км н/о +22.0 +17.4 75 +26 +26 душно 1014.3 1011.4 +25.6
21 16.09 С 2 18 км н/о +21.7 +17.3 76 +26 +26 душно 1015.0 1012.3
00 17.09 С 2 10 км 10/10
[]
+21.9 +18.7 82 +27 +27 душно 1016.4 1013.5
03 17.09 С 3 10 км 10/10
[]
+23.8 +18.9 74 +29 +29 душно 1017.1 1014.4
06 17.09 С 3 13 км 10/10
[]
+24.6 +19.2 72 +30 +30 очень
душно
1015.7 1012.8 +21.5
09 17.09 С 3 16 км 10/10
[]
+24.3 +18.9 72 +29 +29 душно 1015.8 1013.1
12 17.09 С 3 14 км 10/10
[]
+21.9 +17.1 74 +26 +26 душно 1017.9 1015.0
15 17.09 С 1 7000 м дымка н/о +21.0 +17.8 82 +26 +26 душно 1018.8 1016.1
18 17.09 С 2 6000 м дымка ?/? +19.9 +18.2 90 +23 +23 комфорт 1018.8 1015.9 +25.6
21 17.09 С 4 6000 м в посл. час дождь н/о +20.6 +18.0 85 +24 +24 комфорт 1019.6 1016.9
00 18.09 С 3 7000 м слаб. дождь 10/10 300 м
[]
+19.4 +18.9 97 +22 +22 комфорт 1021.4 1018.5 0.4
03 18.09 СВ 2 14 км {дождь} 10/10 1000 м
[]
+20.6 +19.3 92 +25 +25 комфорт 1022.1 1019.4
06 18.09 С 3 7000 м дымка {дождь} 10/10 300 м
[]
+21.5 +19.8 90 +27 +27 душно 1020.7 1017.8 +19.3 0.1
09 18.09 С 3 5000 м дымка 10/10
[]
+22.6 +19.6 83 +29 +29 очень
душно
1020.2 1017.5
12 18.09 С 2 н/о дымка 10/10
[]
+22.2 +19.0 82 +28 +28 душно 1020.5 1017.6
15 18.09 С 2 7000 м дымка н/о +21.4 +18.6 84 +26 +26 душно 1020.3 1017.6
18 18.09 СЗ 1 н/о дымка ?/? +20.4 +18.9 91 +25 +25 комфорт 1019.9 1017.0 +22.9
21 18.09 С 1 н/о дымка н/о +20.1 +18.6 91 +25 +25 комфорт 1019.6 1016.9
00 19.09 С 1 6000 м дымка 9/9
[]
+21.1 +18.9 87 +25 +26 комфорт 1020.3 1017.4
03 19.09 В 2 10 км 9/9
[]
+27.0 +17.2 55 +31 +32 душно 1019.6 1016.9
06 19.09 С 3 11 км 9/9
[]
+28.5 +17.1 50 +32 +33 душно 1017.2 1014.3 +19.6
09 19.09 С 3 13 км 9/9
[]
+27.1 +18.4 59 +32 +32 очень
душно
1016.0 1013.3
12 19.09 С 1 17 км 9/9
[]
+24.1 +15.1 57 +27 +27 жарко 1016.7 1013.8
15 19.09 С 1 30 км н/о +21.7 +13.6 60 +24 +24 комфорт 1017.0 1014.3
18 19.09 С 1 30 км н/о +21.2 +14.6 66 +24 +24 комфорт 1016.5 1013.6 +28.9
21 19.09 С 1 28 км н/о +20.0 +14.4 70 +23 +23 комфорт 1016.4 1013.7

 

Местоположение метеостанции Ухань (Хубэй, Китай): широта 30.62 долгота 114.13 высота над уровнем моря 23 м.

В архиве по умолчанию представлена погода в Ухани за последнюю неделю. Архивные данные за месяц целиком и за предыдущие месяцы, начиная с января 2011 года, Вы можете получить, выбрав интересующий диапазон дат из раскрывающегося списка и нажав кнопку "Ввод!".


*Определитесь, кто Вы:
робот инопланетянин человек

Внимание! Время в таблицах - всемирное. Для получения местного времени необходимо прибавить поправку, которая равна 8 ч.

Смотрите также архив погоды в соседних городах и на ближайших метеорологических станциях:

Погода в Мачэне (Хубэй, Китай) (101 км)
Погода в Жонсяне (Хубэй, Китай) (162 км)
Погода в Синьяне (Хэнань, Китай) (168 км)
Погода в Юэяне (Хунань, Китай) (171 км)
Погода в Сьюши (Цзяньси, Китай) (182 км)
Погода в Янлинге (Шэньси, Китай) (190 км)
Погода в Лушане (Цзяньси, Китай) (212 км)
Погода в Цзаояне (Хубэй, Китай) (220 км)
Погода в Гуши (Хэнань, Китай) (225 км)
Погода в Хушане (Аньхой, Китай) (227 км)

Пояснения к столбцам:

Ветер - указаны скорость ветра в м/с - средняя за 10 мин, порывы в срок и между сроками (в фигурных скобках) и направление, откуда дует ветер: С - северный, СВ - северо-восточный, В - восточный, ЮВ - юго-восточный, Ю - южный, ЮЗ - юго-западный, З - западный, СЗ - северо-западный.
Видимость - горизонтальная дальность видимости в метрах или километрах. При видимости от 1 до 10 км при отсутствии осадков обычно наблюдается дымка, при ухудшении видимости до 1 км и менее - туман. В сухую погоду видимость может ухудшаться дымом, пылью или мглою.
Явления - указаны атмосферные явления, наблюдавшиеся в срок или в последний час перед сроком; фигурными скобками обозначены явления, наблюдавшиеся между сроками (за 1-3 часа до срока); квадратными скобками обозначены град или гололедные отложения с указанием их диаметра в мм.
Облачность - указаны через наклонную черту общая и нижняя облачность в баллах и высота нижней границы облаков в метрах; квадратными скобками обозначены формы облаков: Ci - перистые, Cs - перисто-слоистые, Cc - перисто-кучевые, Ac - высококучевые, As - высокослоистые, Sc - слоисто-кучевые, Ns - слоисто-дождевые, Cu - кучевые, Cb - кучево-дождевые. Подробнее классификацию облаков см. в Атласе облаков (PDF).
T - Температура воздуха - температура, измеренная на высоте 2 м над землей.
Td - Температура точки росы - температура, при понижении до которой содержащийся в воздухе водяной пар достигнет насыщения.
f - Относительная влажность воздуха - влажноcть воздуха, измеренная на высоте 2 м над землей.
Te - Эффективная температура - температура, которую ощущает одетый по сезону человек в тени. Характеристика душности погоды. При расчете учитывается влияние влажности воздуха и скорости ветра на теплоощущения человека.
Tes - Эффективная температура на солнце - температура, которую ощущает человек, с поправкой на солнечный нагрев. Характеристика знойности погоды. Зависит от высоты солнца над горизонтом, облачности и скорости ветра. Ночью, в пасмурную погоду, а также при ветре 12 м/с и более поправка равна нулю.
P - Атмосферное давление - приведенное к уровню моря атмосферное давление.
Po - Атмосферное давление - измеренное на уровне метеостанции атмосферное давление.
Tmin - Минимальная температура - минимум температуры воздуха на высоте 2 м над землей.
Tmax - Максимальная температура - максимум температуры воздуха на высоте 2 м над землей.
R - Количество осадков - Количество выпавших осадков за период времени, мм. При наведении курсора мыши на число - период времени, за который выпало указанное количество осадков.
R24 - Количество осадков - Количество выпавших осадков за 24 часа, мм.
S - Снежный покров - Высота снежного покрова, см. При наведении курсора мыши на число - состояние снежного покрова и степень покрытия местности в баллах.